• In Belarus
  • List of Countries
  • For 7 days
  • Water Temperature
  • Satellite Maps
  • Weather Map
  • Weather Widgets
  • user-avatar
    Login

    Hourly Weather Encamp

    Today, 18 January, Thursday

    Time Temperature Precipitation Wind Pressure Humidity
    00:00 -5°C° 0 mm 2 mps 625 mmHg 71%
    01:00 -5°C° 0 mm 2 mps 625 mmHg 68%
    02:00 -3°C° 0 mm 1 mps 625 mmHg 66%
    03:00 -2°C° 0 mm 1 mps 625 mmHg 64%
    04:00 -2°C° 0 mm 1 mps 625 mmHg 63%
    05:00 -2°C° 0 mm 1 mps 625 mmHg 62%
    06:00 -4°C° 0 mm 2 mps 625 mmHg 57%
    07:00 -1°C° 0 mm 1 mps 625 mmHg 57%
    08:00 0°C° 0 mm 1 mps 626 mmHg 57%
    09:00 +1°C° 0 mm 1 mps 626 mmHg 57%
    10:00 +3°C° 0 mm 1 mps 627 mmHg 58%
    11:00 +4°C° 0 mm 1 mps 627 mmHg 59%
    12:00 +5°C° 0 mm 1 mps 627 mmHg 59%
    13:00 +5°C° 0 mm 1 mps 627 mmHg 61%
    14:00 +5°C° 0 mm 1 mps 626 mmHg 63%
    15:00 +5°C° 0 mm 1 mps 626 mmHg 65%
    16:00 +4°C° 0 mm 1 mps 625 mmHg 70%
    17:00 +2°C° 0 mm 1 mps 624 mmHg 75%
    18:00 0°C° 0 mm 1 mps 624 mmHg 80%
    19:00 -2°C° 0 mm 2 mps 624 mmHg 79%
    20:00 -2°C° 0 mm 2 mps 624 mmHg 78%
    21:00 -2°C° 0 mm 2 mps 624 mmHg 77%
    22:00 -2°C° 0 mm 2 mps 623 mmHg 78%
    23:00 -2°C° 0 mm 2 mps 623 mmHg 79%

    Tomorrow, 19 January, Friday

    Time Temperature Precipitation Wind Pressure Humidity
    00:00 -2°C° 0 mm 2 mps 623 mmHg 80%
    01:00 -2°C° 0 mm 2 mps 623 mmHg 81%
    02:00 -2°C° 0 mm 2 mps 623 mmHg 82%
    03:00 -2°C° 0 mm 2 mps 622 mmHg 82%
    04:00 -2°C° 0 mm 2 mps 622 mmHg 82%
    05:00 -2°C° 0 mm 2 mps 622 mmHg 82%
    06:00 -2°C° 0 mm 2 mps 622 mmHg 83%
    07:00 -1°C° 0.1 mm 2 mps 623 mmHg 81%
    08:00 -1°C° 0.1 mm 2 mps 623 mmHg 79%
    09:00 +1°C° 0.1 mm 2 mps 624 mmHg 78%
    10:00 +2°C° 0 mm 2 mps 624 mmHg 74%
    11:00 +3°C° 0 mm 2 mps 625 mmHg 71%
    12:00 +4°C° 0 mm 2 mps 625 mmHg 68%
    13:00 +3°C° 0 mm 3 mps 625 mmHg 67%
    14:00 +3°C° 0 mm 3 mps 625 mmHg 66%
    15:00 +2°C° 0 mm 3 mps 624 mmHg 65%
    16:00 +1°C° 0 mm 3 mps 624 mmHg 70%
    17:00 -1°C° 0 mm 3 mps 624 mmHg 75%
    18:00 -4°C° 0 mm 3 mps 624 mmHg 79%
    19:00 -4°C° 0 mm 3 mps 624 mmHg 78%
    20:00 -4°C° 0 mm 3 mps 624 mmHg 77%
    21:00 -4°C° 0 mm 3 mps 624 mmHg 76%
    22:00 -4°C° 0 mm 3 mps 624 mmHg 77%
    23:00 -4°C° 0 mm 3 mps 625 mmHg 77%

    Day after tomorrow, 20 January, Saturday

    Time Temperature Precipitation Wind Pressure Humidity
    00:00 -3°C° 0 mm 2 mps 625 mmHg 78%
    01:00 -3°C° 0 mm 2 mps 625 mmHg 79%
    02:00 -3°C° 0 mm 2 mps 624 mmHg 79%
    03:00 -4°C° 0 mm 2 mps 624 mmHg 80%
    04:00 -4°C° 0 mm 2 mps 624 mmHg 80%
    05:00 -4°C° 0 mm 2 mps 624 mmHg 80%
    06:00 -4°C° 0 mm 2 mps 623 mmHg 79%
    07:00 -3°C° 0 mm 2 mps 624 mmHg 76%
    08:00 0°C° 0 mm 1 mps 624 mmHg 72%
    09:00 +1°C° 0 mm 1 mps 625 mmHg 68%
    10:00 +1°C° 0.1 mm 2 mps 624 mmHg 69%
    11:00 +2°C° 0.1 mm 2 mps 624 mmHg 70%
    12:00 +2°C° 0.1 mm 3 mps 624 mmHg 71%
    13:00 +2°C° 0.7 mm 3 mps 624 mmHg 74%
    14:00 +2°C° 0.7 mm 3 mps 623 mmHg 77%
    15:00 +3°C° 0.7 mm 3 mps 623 mmHg 80%
    16:00 +1°C° 0.8 mm 4 mps 623 mmHg 83%
    17:00 +1°C° 0.8 mm 4 mps 623 mmHg 86%
    18:00 0°C° 0.8 mm 4 mps 622 mmHg 90%
    19:00 0°C° 0.5 mm 4 mps 623 mmHg 90%
    20:00 0°C° 0.5 mm 4 mps 623 mmHg 90%
    21:00 0°C° 0.5 mm 4 mps 624 mmHg 91%
    22:00 0°C° 0.5 mm 4 mps 624 mmHg 91%
    23:00 +1°C° 0.5 mm 4 mps 625 mmHg 90%

    21 January, Sunday

    Time Temperature Precipitation Wind Pressure Humidity
    00:00 +2°C° 0.5 mm 3 mps 625 mmHg 90%
    01:00 +2°C° 0.6 mm 3 mps 625 mmHg 90%
    02:00 +2°C° 0.6 mm 3 mps 625 mmHg 90%
    03:00 +2°C° 0.6 mm 3 mps 626 mmHg 90%
    04:00 +2°C° 0.4 mm 3 mps 626 mmHg 90%
    05:00 +2°C° 0.4 mm 3 mps 626 mmHg 89%
    06:00 +2°C° 0.4 mm 3 mps 626 mmHg 89%
    07:00 +2°C° 0.2 mm 3 mps 627 mmHg 88%
    08:00 +2°C° 0.2 mm 3 mps 627 mmHg 87%
    09:00 +2°C° 0.2 mm 3 mps 627 mmHg 85%
    10:00 +3°C° 0.2 mm 3 mps 628 mmHg 83%
    11:00 +4°C° 0.2 mm 3 mps 628 mmHg 81%
    12:00 +5°C° 0.2 mm 3 mps 629 mmHg 78%
    13:00 +5°C° 0.1 mm 3 mps 629 mmHg 77%
    14:00 +5°C° 0.1 mm 3 mps 629 mmHg 77%
    15:00 +5°C° 0.1 mm 3 mps 629 mmHg 76%
    16:00 +4°C° 0 mm 3 mps 629 mmHg 79%
    17:00 +3°C° 0 mm 3 mps 628 mmHg 81%
    18:00 +1°C° 0 mm 3 mps 628 mmHg 84%
    19:00 +1°C° 0 mm 3 mps 628 mmHg 84%
    20:00 +1°C° 0 mm 3 mps 629 mmHg 83%
    21:00 +1°C° 0 mm 3 mps 629 mmHg 83%
    22:00 +1°C° 0 mm 3 mps 629 mmHg 83%
    23:00 0°C° 0 mm 3 mps 629 mmHg 83%

    22 January, Monday

    Time Temperature Precipitation Wind Pressure Humidity
    00:00 0°C° 0 mm 3 mps 629 mmHg 83%
    01:00 0°C° 0 mm 3 mps 629 mmHg 83%
    02:00 0°C° 0 mm 3 mps 628 mmHg 84%
    03:00 0°C° 0 mm 3 mps 628 mmHg 84%
    04:00 0°C° 0 mm 3 mps 628 mmHg 83%
    05:00 -1°C° 0 mm 3 mps 628 mmHg 83%
    06:00 -1°C° 0 mm 3 mps 628 mmHg 82%
    07:00 +1°C° 0 mm 2 mps 629 mmHg 80%
    08:00 +2°C° 0 mm 2 mps 629 mmHg 77%
    09:00 +3°C° 0 mm 2 mps 630 mmHg 75%
    10:00 +5°C° 0 mm 2 mps 630 mmHg 71%
    11:00 +6°C° 0 mm 2 mps 631 mmHg 67%
    12:00 +8°C° 0 mm 2 mps 631 mmHg 63%
    13:00 +8°C° 0 mm 2 mps 631 mmHg 64%
    14:00 +7°C° 0 mm 2 mps 631 mmHg 65%
    15:00 +7°C° 0 mm 2 mps 630 mmHg 66%
    16:00 +6°C° 0 mm 2 mps 630 mmHg 71%
    17:00 +4°C° 0 mm 2 mps 629 mmHg 76%
    18:00 +2°C° 0 mm 2 mps 629 mmHg 81%
    19:00 +2°C° 0 mm 2 mps 629 mmHg 78%
    20:00 +2°C° 0 mm 2 mps 629 mmHg 75%
    21:00 +1°C° 0 mm 2 mps 629 mmHg 72%
    22:00 +1°C° 0 mm 2 mps 629 mmHg 69%
    23:00 +1°C° 0 mm 2 mps 629 mmHg 66%

    23 January, Tuesday

    Time Temperature Precipitation Wind Pressure Humidity
    00:00 +1°C° 0 mm 2 mps 629 mmHg 63%
    01:00 +1°C° 0 mm 2 mps 629 mmHg 62%
    02:00 +1°C° 0 mm 2 mps 629 mmHg 62%
    03:00 +1°C° 0 mm 2 mps 629 mmHg 61%
    04:00 +1°C° 0 mm 2 mps 629 mmHg 61%
    05:00 +1°C° 0 mm 2 mps 629 mmHg 60%
    06:00 -1°C° 0 mm 2 mps 629 mmHg 60%
    07:00 +1°C° 0 mm 2 mps 630 mmHg 59%
    08:00 +2°C° 0 mm 2 mps 631 mmHg 58%
    09:00 +3°C° 0 mm 2 mps 631 mmHg 56%
    10:00 +6°C° 0 mm 1 mps 632 mmHg 53%
    11:00 +8°C° 0 mm 1 mps 632 mmHg 49%
    12:00 +10°C° 0 mm 1 mps 633 mmHg 46%
    13:00 +9°C° 0 mm 1 mps 632 mmHg 48%
    14:00 +9°C° 0 mm 1 mps 632 mmHg 51%
    15:00 +9°C° 0 mm 1 mps 632 mmHg 53%
    16:00 +7°C° 0 mm 1 mps 631 mmHg 58%
    17:00 +4°C° 0 mm 0 mps 630 mmHg 64%
    18:00 +2°C° 0 mm 0 mps 629 mmHg 70%
    19:00 +3°C° 0 mm 1 mps 629 mmHg 68%
    20:00 +3°C° 0 mm 1 mps 629 mmHg 67%
    21:00 +2°C° 0 mm 1 mps 629 mmHg 66%
    22:00 +2°C° 0 mm 1 mps 629 mmHg 65%
    23:00 +2°C° 0 mm 1 mps 629 mmHg 64%
    Show more